TIGRISAT

Last updated on Thu Nov 21 2024 00:03:39 GMT+0000 (Coordinated Universal Time)

1 40043U 14033AK 24325.40602687 .00004977 00000+0 63411-3 0 9995 2 40043 97.7108 121.7525 0053881 153.1950 207.2066 14.80933930560562
UTC large
Height (km)
Speed (km/s)
/
Latitude / Longitude
Inclination (degrees)
Orbital Period (minutes)
Azimuth
Elevation
Range (km)
Doppler Factor

Next 0 passes for location: London (51.5072 / 0.1276)

Sorry there are no passes over London.